Wind_Speed
31 31 31 29 27 22 19 22 22 24 24 25 27 28 26 27 23 27 36 40 37 37 36 33 35 31 27 21 17 16 16 17 18 19 20 22 23 22 23 24 27 29 30 30 30 35 38 43 48
36 35 31 29 30 23 19 24 20 21 22 25 25 28 28 27 21 19 27 35 38 39 37 36 37 33 27 23 18 16 17 18 18 19 21 22 21 21 22 24 28 27 27 29 31 34 39 47 53
38 36 33 30 29 26 23 31 24 21 19 24 27 26 28 25 22 20 23 31 36 40 38 37 39 34 30 25 20 18 19 20 19 18 18 19 17 19 22 24 23 25 26 27 31 37 43 50 55
38 40 37 36 31 27 23 24 29 26 20 21 28 29 26 27 21 22 23 31 33 38 37 39 41 35 30 26 22 20 20 20 17 14 14 14 16 19 20 20 22 24 24 28 33 38 44 51 58
40 40 42 38 34 32 26 25 31 29 25 23 26 30 26 25 23 20 24 32 33 37 38 41 40 36 31 26 23 20 19 19 15 12 12 13 15 16 17 21 22 23 24 29 34 40 45 53 60
50 48 48 43 39 34 30 29 34 34 32 25 28 31 30 27 27 23 26 32 34 38 39 41 43 36 32 27 23 21 20 19 15 13 12 14 15 15 18 20 19 22 25 30 36 42 47 54 62
55 53 53 49 43 37 31 33 38 37 35 27 29 32 32 32 30 32 30 35 36 39 41 43 43 39 34 29 24 21 21 20 16 15 15 16 15 14 18 18 18 22 25 31 38 43 48 55 62
57 54 55 54 48 47 37 40 40 41 39 38 35 33 34 36 34 38 35 37 40 42 45 44 44 41 36 30 26 23 22 21 17 16 16 16 13 13 15 18 18 22 26 32 38 42 48 55 62
58 56 63 62 54 54 47 47 47 49 46 45 42 41 39 39 40 38 41 39 43 45 46 47 45 43 37 32 28 26 24 22 18 17 18 15 12 11 13 17 21 24 27 32 39 43 48 54 62
63 60 69 65 61 59 53 53 54 56 58 59 53 46 45 42 45 42 44 43 46 50 49 49 49 46 40 35 31 29 26 22 19 19 19 18 13 12 14 18 22 26 27 33 38 43 48 53 59
67 70 69 72 69 65 66 64 65 65 64 63 55 50 53 45 49 49 47 49 49 55 55 52 53 50 46 41 35 32 29 24 21 21 19 20 16 13 14 18 23 27 28 33 38 42 46 51 57
75 77 77 80 77 74 77 72 72 69 71 65 62 58 58 56 48 55 51 53 52 57 59 57 55 54 49 43 38 34 31 27 24 22 20 20 18 15 17 19 22 27 29 32 36 40 44 49 54
85 85 85 87 88 83 82 79 80 74 78 75 74 66 66 63 57 60 55 57 57 60 62 61 58 56 51 46 41 36 34 30 28 24 21 21 19 18 19 20 22 26 28 32 35 40 43 47 51
92 90 90 90 96 92 89 87 84 83 89 80 72 72 71 65 61 60 60 61 64 63 64 64 60 58 54 48 45 39 35 33 29 27 24 22 21 21 21 21 21 24 26 30 35 39 41 45 49
102 100 97 100 100 100 96 85 81 84 80 75 73 70 68 68 59 63 66 63 67 66 65 65 64 62 57 52 48 42 38 35 32 29 26 24 22 22 22 22 20 23 26 29 33 38 40 43 47
101 101 98 94 93 90 88 78 76 73 73 67 67 65 63 64 60 66 68 66 66 70 70 68 65 64 61 56 51 45 41 39 34 30 26 25 22 21 21 23 20 22 25 28 32 36 39 41 45
93 93 93 90 91 90 86 74 71 75 72 66 66 66 65 65 63 69 70 68 70 75 74 72 68 66 64 59 55 50 45 42 38 34 28 26 24 22 23 24 22 23 25 28 31 34 39 39 42
96 93 92 90 92 91 85 69 68 69 64 59 57 63 64 69 70 75 75 71 73 75 79 76 72 69 65 63 59 56 50 47 44 38 32 29 28 26 25 26 26 25 26 28 30 33 37 39 40
99 98 95 95 95 90 90 75 69 69 68 62 60 62 62 64 71 79 80 77 74 78 79 80 77 74 70 67 65 61 56 50 46 42 37 33 29 28 26 26 27 27 25 28 29 32 36 38 39
101 100 100 98 96 91 90 78 72 71 70 68 68 66 67 67 72 80 85 84 78 81 82 83 83 78 75 72 69 64 58 53 49 47 44 37 32 31 29 29 27 29 27 27 30 31 34 36 38
97 97 98 97 100 99 91 81 78 75 74 74 65 68 75 74 74 78 85 86 85 82 86 86 87 85 80 77 71 67 61 57 56 57 48 40 36 34 31 31 29 29 31 28 30 31 34 34 36
94 95 95 95 96 98 97 80 78 78 79 78 76 77 78 80 83 80 84 88 89 85 91 90 90 89 85 81 75 69 67 65 63 56 49 45 43 37 35 33 32 30 34 30 30 32 34 34 35
88 93 96 95 93 90 95 86 69 83 79 85 85 88 88 87 88 89 85 87 93 93 90 94 93 91 87 84 80 74 70 69 64 58 56 53 48 42 39 37 34 32 34 34 32 34 35 35 35
80 82 86 89 89 85 89 87 68 82 83 89 96 90 95 94 94 95 92 94 95 98 93 95 96 92 90 88 84 79 74 73 67 62 62 59 52 46 43 41 37 35 35 36 34 35 34 35 35
77 74 77 80 83 84 89 80 66 81 88 94 96 96 98 102 101 100 99 95 99 101 99 96 99 96 93 90 87 84 79 77 72 66 65 62 57 53 48 44 42 38 36 39 35 35 34 35 35
79 75 73 72 77 78 76 68 70 80 89 91 98 102 107 109 109 106 106 104 101 104 104 98 99 100 95 93 89 88 85 80 75 71 68 66 63 58 53 49 45 41 38 40 37 35 35 34 34
78 77 74 70 68 71 70 68 65 78 92 96 107 112 115 116 121 115 114 110 104 106 106 102 97 101 100 96 95 91 87 84 78 74 73 68 65 62 58 54 49 44 41 41 38 36 35 36 34
74 73 73 71 66 67 64 68 66 78 94 102 105 110 114 117 119 119 117 113 108 109 108 109 101 98 100 100 98 94 91 89 83 77 75 72 68 64 61 58 53 48 44 42 41 37 35 37 34
71 64 64 65 67 61 57 59 72 78 92 108 110 112 118 121 121 124 121 116 112 109 108 107 105 101 100 100 99 96 93 90 84 80 77 74 71 66 63 59 55 51 47 44 42 38 36 37 34
67 62 60 58 57 59 54 57 72 75 89 105 112 110 117 123 122 123 127 120 116 111 109 105 108 101 98 100 101 97 94 92 87 83 78 76 73 68 65 61 57 54 51 46 42 38 37 38 36
Wind_Direction
283 283 280 268 280 284 300 303 305 313 310 307 289 283 287 271 262 238 227 229 232 226 213 214 211 212 213 216 230 241 255 271 273 269 264 264 271 279 278 284 297 307 311 315 322 323 323 323 325
283 281 269 262 271 274 289 294 307 304 311 304 298 289 291 282 272 251 228 226 223 220 213 213 211 212 214 215 233 247 262 269 275 274 268 267 273 277 282 291 303 313 319 320 325 326 325 329 331
278 275 270 258 262 267 270 279 295 294 305 304 300 291 289 286 270 246 231 225 219 214 215 212 210 212 215 219 233 250 262 270 273 275 269 271 271 282 290 300 311 320 322 326 324 326 327 332 336
275 271 273 266 260 258 263 273 283 286 294 302 298 295 289 290 261 247 230 220 216 214 218 213 210 212 216 219 232 248 261 266 273 274 269 271 280 287 296 310 322 321 326 324 326 328 331 335 338
271 271 273 264 263 259 259 267 278 276 287 290 292 294 282 282 253 243 225 217 216 218 223 212 211 216 217 222 231 249 261 266 270 276 276 278 284 291 304 316 321 319 328 327 330 333 335 338 341
273 272 269 265 264 261 260 267 275 273 271 277 287 283 284 273 252 232 223 223 221 222 220 211 214 219 221 222 231 248 260 267 266 266 271 277 284 297 313 317 320 321 329 330 332 337 340 341 344
273 271 267 266 264 265 262 260 271 267 267 274 277 274 280 278 261 240 228 229 231 227 215 212 215 220 221 224 233 249 260 264 262 261 266 274 283 304 315 318 324 325 332 332 334 339 343 344 346
273 268 267 264 266 269 263 265 268 270 269 265 269 270 267 278 264 255 234 233 230 223 212 215 217 219 222 226 234 249 258 264 261 256 262 270 285 305 312 315 324 329 333 335 337 342 344 346 349
269 272 269 267 267 271 269 272 273 276 277 274 269 272 263 267 268 256 247 229 226 218 215 216 218 219 223 229 239 249 253 262 255 252 260 265 280 301 308 314 320 326 330 336 338 343 346 349 351
267 270 268 269 269 269 271 270 273 276 274 272 270 266 268 258 261 252 246 233 224 218 216 217 216 220 224 232 240 249 252 256 247 251 259 262 273 289 303 313 318 326 329 335 337 341 346 351 353
265 264 265 266 268 267 268 267 268 271 270 267 264 265 266 255 253 251 241 235 227 219 217 219 219 222 229 236 239 247 251 250 243 249 257 263 267 281 299 311 316 320 327 332 335 340 347 352 355
262 263 263 264 266 266 265 264 266 263 269 266 265 264 262 257 252 249 240 236 229 223 219 218 222 224 229 233 237 243 248 249 240 245 256 263 269 278 293 306 312 316 324 329 335 340 347 353 356
261 262 262 263 266 268 264 265 268 271 268 268 264 262 262 260 256 242 239 235 228 224 223 220 221 226 229 232 234 239 245 249 242 245 250 261 271 279 289 298 311 315 320 326 334 339 347 353 357
263 263 263 264 264 266 266 264 268 265 266 264 261 262 260 254 254 235 238 231 231 224 223 224 224 226 229 229 232 235 242 247 245 244 249 258 270 280 288 293 304 313 319 325 334 339 347 352 357
263 263 263 262 263 264 264 264 265 260 262 260 259 255 252 252 244 231 233 231 230 227 223 224 227 229 229 228 230 234 239 245 245 243 249 257 265 275 284 289 301 309 317 324 332 338 346 351 355
265 265 267 264 263 263 263 261 261 260 260 252 250 247 243 246 237 228 230 234 227 228 224 224 227 229 229 228 229 231 238 241 242 239 244 253 259 267 277 285 296 304 314 322 329 335 344 349 354
264 265 265 263 264 263 260 259 259 258 256 250 244 241 236 232 231 229 225 229 229 226 225 224 225 227 229 228 229 230 235 240 239 238 239 248 255 262 271 281 290 300 308 317 325 331 338 347 352
264 263 262 260 260 259 259 254 252 254 251 246 239 240 235 235 229 224 221 225 229 226 226 225 225 226 228 230 229 231 233 235 237 238 239 246 254 261 269 278 286 296 304 312 320 329 333 343 350
263 262 260 259 258 257 256 251 248 246 246 240 236 236 234 229 230 225 221 219 224 227 225 226 225 225 227 229 229 229 231 234 236 238 240 243 250 259 267 275 284 291 301 308 317 325 330 337 345
264 262 261 260 260 256 254 246 244 239 240 237 236 230 232 227 227 226 224 219 219 223 224 225 226 226 226 227 229 231 232 233 233 236 240 241 248 256 264 272 281 287 296 305 313 319 326 333 340
263 261 259 259 259 258 251 245 241 233 233 238 234 230 229 229 226 226 227 222 218 219 222 223 225 227 226 226 228 231 231 229 231 233 237 239 248 253 260 269 277 283 292 303 306 313 320 329 334
264 263 260 257 254 254 255 241 240 236 228 235 235 229 227 226 226 225 224 223 218 218 220 221 224 226 227 227 227 228 228 227 231 234 237 241 247 250 259 266 274 280 285 298 300 307 315 326 329
261 259 259 258 254 252 252 247 231 240 228 233 230 226 223 224 223 223 222 222 221 217 219 220 221 224 225 228 227 227 228 228 230 232 234 239 243 247 256 263 269 276 282 292 296 301 311 319 325
261 259 257 257 255 252 249 246 226 234 230 229 226 225 222 222 222 221 220 219 220 218 217 221 220 222 224 226 227 227 227 228 229 231 234 237 241 246 252 260 265 270 278 286 291 296 306 313 321
266 260 257 256 254 251 249 243 229 232 229 224 227 224 223 223 222 219 219 218 218 219 216 217 220 220 222 225 226 227 227 228 230 232 235 238 240 243 249 256 261 266 271 280 288 292 299 307 315
271 267 261 253 254 253 252 244 234 226 231 223 224 223 220 219 221 220 219 217 217 218 218 217 218 220 220 223 225 226 226 228 230 232 234 236 240 242 247 252 257 262 265 275 284 288 292 303 309
272 271 266 257 252 248 248 243 229 225 225 225 220 222 220 217 216 217 217 218 215 217 217 216 218 221 220 221 223 225 226 227 228 230 233 234 238 242 245 249 254 259 262 270 279 283 287 297 304
269 267 266 263 255 251 244 240 231 223 216 223 221 221 220 218 216 218 217 218 215 216 217 217 215 218 221 222 223 224 225 227 228 229 233 234 236 240 244 248 252 256 259 266 275 278 282 291 300
273 267 262 261 261 253 245 241 235 222 215 219 221 218 218 217 217 216 219 216 216 216 215 217 216 217 219 221 224 225 226 228 229 230 233 234 236 239 243 246 250 252 255 262 268 274 278 286 295
273 271 266 260 258 251 242 239 230 221 218 217 219 218 218 217 215 215 218 218 216 215 214 215 218 217 219 220 222 224 226 228 229 231 232 234 236 238 240 243 246 249 253 258 263 269 273 280 287
Height
10781 10781 10781 10782 10782 10783 10784 10781 10781 10780 10779 10776 10775 10774 10772 10770 10770 10773 10776 10779 10785 10787 10791 10794 10797 10799 10802 10803 10805 10806 10806 10807 10806 10806 10806 10807 10806 10805 10804 10802 10802 10800 10796 10793 10789 10785 10780 10774 10766
10775 10774 10774 10775 10776 10778 10780 10778 10777 10776 10776 10773 10770 10769 10768 10767 10767 10769 10771 10773 10779 10784 10788 10791 10794 10797 10799 10801 10803 10803 10804 10805 10804 10804 10804 10804 10803 10802 10801 10800 10799 10795 10792 10789 10787 10782 10775 10768 10759
10767 10767 10767 10767 10769 10772 10773 10773 10773 10772 10772 10771 10767 10765 10764 10765 10765 10766 10768 10771 10776 10781 10785 10788 10791 10794 10797 10799 10800 10802 10802 10803 10803 10803 10802 10801 10800 10799 10798 10797 10795 10792 10790 10787 10783 10778 10770 10763 10753
10758 10759 10759 10760 10761 10765 10767 10768 10767 10767 10769 10768 10764 10762 10762 10762 10763 10764 10767 10770 10774 10779 10783 10786 10789 10792 10794 10796 10798 10799 10800 10800 10801 10800 10799 10798 10797 10797 10796 10795 10792 10789 10787 10784 10780 10773 10766 10758 10747
10749 10750 10750 10751 10753 10757 10760 10762 10761 10761 10763 10763 10763 10759 10759 10759 10760 10762 10766 10768 10772 10776 10780 10783 10787 10789 10792 10793 10796 10797 10798 10798 10798 10798 10796 10795 10794 10794 10793 10791 10789 10786 10785 10781 10776 10770 10763 10754 10741
10738 10739 10739 10740 10742 10748 10753 10756 10753 10753 10756 10759 10758 10757 10756 10757 10758 10760 10764 10767 10770 10773 10776 10780 10783 10787 10789 10791 10793 10794 10795 10795 10796 10795 10794 10792 10792 10792 10791 10788 10787 10784 10782 10779 10773 10767 10759 10750 10737
10727 10728 10727 10728 10732 10737 10745 10747 10746 10745 10749 10752 10753 10752 10752 10753 10755 10756 10760 10763 10765 10769 10773 10777 10780 10783 10785 10788 10789 10791 10792 10792 10793 10793 10791 10790 10790 10790 10788 10786 10784 10783 10780 10776 10770 10764 10755 10746 10735
10715 10716 10713 10715 10721 10726 10736 10735 10737 10738 10741 10745 10746 10748 10748 10750 10751 10752 10755 10757 10760 10764 10768 10772 10776 10779 10782 10784 10786 10787 10788 10789 10790 10790 10789 10788 10788 10788 10786 10784 10782 10781 10778 10773 10768 10761 10754 10744 10732
10703 10706 10699 10701 10709 10714 10723 10725 10727 10728 10730 10733 10738 10743 10743 10745 10746 10747 10749 10751 10754 10758 10764 10767 10771 10774 10777 10780 10782 10784 10785 10786 10787 10787 10786 10786 10786 10785 10783 10782 10780 10778 10775 10771 10766 10759 10752 10742 10730
10691 10693 10684 10689 10697 10700 10710 10713 10716 10717 10719 10719 10725 10734 10735 10738 10739 10741 10743 10746 10748 10752 10757 10761 10765 10769 10772 10776 10779 10780 10782 10783 10783 10784 10783 10783 10783 10783 10781 10780 10778 10776 10773 10768 10763 10758 10751 10741 10730
10677 10677 10674 10672 10682 10688 10692 10698 10702 10705 10704 10705 10714 10722 10726 10729 10731 10733 10735 10739 10742 10744 10749 10755 10758 10762 10767 10771 10774 10777 10778 10779 10780 10780 10780 10780 10781 10780 10779 10778 10775 10773 10770 10766 10762 10756 10750 10741 10731
10660 10660 10660 10654 10663 10672 10673 10682 10687 10692 10686 10694 10701 10710 10714 10717 10722 10724 10728 10731 10736 10739 10742 10746 10751 10755 10760 10766 10769 10772 10774 10775 10776 10776 10776 10776 10778 10778 10777 10776 10774 10771 10768 10764 10760 10755 10749 10741 10731
10640 10641 10643 10643 10642 10651 10656 10662 10669 10679 10672 10681 10686 10695 10700 10705 10710 10714 10719 10722 10726 10729 10735 10739 10744 10749 10754 10758 10763 10767 10769 10771 10772 10772 10772 10772 10774 10775 10774 10773 10771 10769 10766 10762 10758 10753 10747 10740 10732
10613 10619 10620 10623 10618 10630 10640 10643 10655 10658 10650 10661 10673 10679 10684 10691 10697 10705 10708 10711 10714 10720 10725 10734 10739 10742 10747 10752 10757 10761 10764 10766 10767 10768 10768 10768 10769 10771 10771 10770 10769 10766 10763 10759 10755 10751 10746 10739 10732
10584 10593 10600 10598 10605 10604 10616 10630 10631 10627 10633 10646 10653 10661 10668 10673 10684 10690 10693 10701 10705 10711 10719 10724 10731 10734 10739 10745 10750 10754 10758 10760 10762 10764 10764 10764 10765 10767 10766 10766 10766 10763 10761 10757 10753 10749 10745 10738 10732
10559 10565 10570 10574 10577 10579 10587 10611 10607 10612 10614 10625 10631 10641 10652 10658 10668 10674 10684 10690 10697 10702 10706 10713 10721 10726 10731 10737 10742 10747 10751 10755 10757 10759 10760 10760 10760 10762 10762 10762 10762 10760 10758 10755 10751 10747 10743 10738 10731
10534 10539 10545 10550 10551 10553 10561 10589 10593 10589 10597 10610 10615 10622 10633 10639 10649 10658 10668 10675 10682 10687 10696 10702 10709 10717 10722 10729 10734 10739 10743 10748 10751 10753 10755 10755 10756 10757 10758 10758 10758 10757 10755 10752 10749 10745 10741 10737 10732
10507 10513 10519 10524 10523 10525 10537 10572 10575 10574 10581 10595 10603 10606 10619 10625 10633 10635 10647 10659 10668 10676 10683 10691 10699 10706 10712 10719 10725 10730 10734 10738 10743 10747 10749 10750 10751 10752 10754 10753 10753 10753 10751 10749 10747 10743 10739 10736 10732
10477 10483 10490 10491 10494 10509 10513 10543 10558 10557 10562 10576 10584 10589 10600 10609 10610 10620 10628 10639 10650 10662 10672 10680 10686 10692 10700 10706 10712 10717 10723 10730 10736 10740 10742 10744 10746 10747 10748 10748 10748 10748 10748 10746 10744 10741 10738 10735 10730
10445 10452 10457 10465 10468 10478 10484 10514 10533 10537 10543 10552 10561 10575 10580 10587 10593 10599 10608 10620 10632 10640 10651 10662 10671 10679 10686 10692 10698 10708 10716 10723 10728 10730 10733 10737 10739 10740 10742 10743 10744 10742 10743 10742 10741 10739 10736 10733 10729
10415 10421 10428 10437 10439 10443 10456 10483 10499 10512 10525 10527 10548 10553 10557 10567 10574 10580 10590 10602 10614 10623 10633 10643 10651 10659 10670 10679 10689 10697 10708 10713 10715 10715 10725 10731 10732 10734 10736 10738 10738 10738 10737 10738 10737 10735 10733 10731 10727
10386 10388 10395 10403 10411 10416 10419 10454 10475 10486 10501 10509 10517 10526 10534 10541 10548 10556 10567 10581 10594 10605 10610 10623 10633 10643 10656 10666 10676 10686 10692 10697 10701 10712 10721 10723 10724 10728 10730 10732 10733 10733 10732 10733 10732 10731 10729 10728 10725
10357 10357 10360 10370 10381 10393 10395 10414 10468 10453 10471 10472 10477 10488 10499 10511 10522 10532 10545 10558 10570 10581 10594 10602 10613 10626 10641 10651 10663 10672 10681 10685 10693 10704 10708 10711 10715 10720 10723 10725 10727 10728 10727 10727 10728 10726 10725 10724 10722
10326 10331 10334 10340 10351 10365 10366 10381 10439 10425 10435 10438 10445 10459 10473 10485 10496 10507 10521 10531 10547 10559 10572 10585 10597 10610 10624 10634 10648 10658 10665 10672 10683 10692 10695 10700 10708 10712 10715 10717 10720 10722 10722 10721 10722 10721 10721 10720 10718
10297 10304 10309 10316 10321 10329 10334 10361 10404 10396 10395 10411 10418 10432 10446 10458 10469 10482 10495 10510 10523 10536 10551 10563 10578 10591 10606 10618 10632 10643 10651 10659 10671 10679 10685 10692 10699 10702 10707 10710 10712 10715 10716 10715 10717 10716 10716 10716 10714
10272 10275 10281 10293 10293 10304 10317 10346 10361 10371 10368 10384 10391 10395 10406 10424 10437 10455 10471 10484 10500 10516 10531 10548 10562 10573 10588 10600 10614 10624 10635 10645 10657 10667 10672 10680 10687 10693 10699 10701 10704 10708 10709 10710 10712 10712 10711 10711 10710
10253 10251 10252 10262 10273 10280 10295 10306 10329 10333 10342 10341 10346 10350 10369 10383 10399 10418 10436 10456 10475 10493 10511 10530 10546 10557 10570 10581 10590 10607 10620 10632 10644 10651 10658 10669 10676 10683 10688 10691 10696 10699 10701 10703 10706 10706 10705 10705 10705
10232 10231 10229 10232 10246 10255 10270 10279 10291 10290 10302 10300 10322 10337 10350 10365 10383 10401 10415 10437 10456 10472 10488 10502 10524 10541 10554 10565 10576 10591 10604 10614 10628 10640 10648 10657 10664 10673 10678 10682 10687 10690 10692 10695 10698 10699 10699 10698 10699
10202 10208 10210 10214 10216 10230 10245 10252 10236 10259 10273 10271 10282 10304 10316 10335 10360 10378 10396 10412 10435 10454 10472 10491 10506 10520 10535 10551 10563 10577 10591 10603 10618 10628 10634 10644 10654 10662 10666 10672 10677 10681 10683 10687 10690 10692 10692 10693 10693
10182 10183 10186 10192 10198 10203 10217 10214 10221 10241 10249 10258 10264 10283 10293 10310 10332 10349 10372 10394 10416 10436 10455 10475 10489 10506 10521 10532 10544 10561 10575 10589 10606 10616 10622 10631 10641 10650 10655 10661 10667 10671 10674 10679 10682 10685 10685 10685 10687